THY6575 ZGGG-LTFM

Flight info

Callsign THY6575
Flight time N/A
Altitude 26600
Route VIBOS9 VIBOS R473 ZUH/K0920S0840 R200 LH R339 BSE A599 LINSO/N0509F300 A599 LSO A201 LKN R594 DPN A589 ASARI A466 SULOM T400 PS P500 LAKRA/N0505F320 G325 REGET N644 LEMOD A909 RODAR M11 ERLEV L850 ADEKI DCT BADIR DCT LAGAS DCT NOLGA UG261 TBN UM11 CRM UL746 GOKPA UM10 HAKAN UN644 GUMRU UT315 NUGBA
Aircraft B77L/H-SDE1E2E3FGHIJ2J3J4J5M1RWXY/LB1D1

Departure

Time 2026-04-30 05:35
Airport Guangzhou Baiyun International Airport (ZGGG)

Arrival

Time N/A
Airport İstanbul Airport (LTFM)
Time Latitude Longitude Altitude Speed Heading
2026-04-30 05:22 23.42105 113.29821 58 ft 0 kts 194°
2026-04-30 05:22 23.42087 113.29816 58 ft 8 kts 193°
2026-04-30 05:22 23.42009 113.29797 58 ft 11 kts 193°
2026-04-30 05:22 23.41927 113.29776 58 ft 12 kts 193°
2026-04-30 05:23 23.41836 113.29753 58 ft 13 kts 194°
2026-04-30 05:23 23.41756 113.29730 58 ft 10 kts 194°
2026-04-30 05:23 23.41690 113.29712 58 ft 9 kts 194°
2026-04-30 05:23 23.41623 113.29694 58 ft 10 kts 194°
2026-04-30 05:24 23.41555 113.29675 58 ft 10 kts 193°
2026-04-30 05:24 23.41472 113.29654 58 ft 16 kts 193°
2026-04-30 05:24 23.41338 113.29617 58 ft 23 kts 195°
2026-04-30 05:24 23.41173 113.29571 58 ft 22 kts 194°
2026-04-30 05:25 23.41032 113.29533 58 ft 19 kts 193°
2026-04-30 05:25 23.40910 113.29500 58 ft 16 kts 194°
2026-04-30 05:25 23.40803 113.29471 58 ft 17 kts 193°
2026-04-30 05:25 23.40681 113.29438 58 ft 17 kts 193°
2026-04-30 05:26 23.40559 113.29406 58 ft 18 kts 193°
2026-04-30 05:26 23.40432 113.29372 58 ft 19 kts 193°
2026-04-30 05:26 23.40299 113.29337 58 ft 19 kts 194°
2026-04-30 05:26 23.40164 113.29299 58 ft 20 kts 194°
2026-04-30 05:27 23.40023 113.29262 58 ft 21 kts 194°
2026-04-30 05:27 23.39880 113.29222 58 ft 21 kts 194°
2026-04-30 05:27 23.39732 113.29182 58 ft 22 kts 194°
2026-04-30 05:27 23.39581 113.29140 58 ft 22 kts 193°
2026-04-30 05:28 23.39426 113.29099 58 ft 22 kts 194°
2026-04-30 05:28 23.39271 113.29056 58 ft 23 kts 194°
2026-04-30 05:28 23.39112 113.29015 58 ft 23 kts 194°
2026-04-30 05:28 23.38947 113.28970 58 ft 24 kts 194°
2026-04-30 05:29 23.38794 113.28928 58 ft 24 kts 194°
2026-04-30 05:29 23.38626 113.28883 58 ft 22 kts 193°
2026-04-30 05:29 23.38489 113.28846 58 ft 18 kts 194°
2026-04-30 05:29 23.38373 113.28815 58 ft 16 kts 194°
2026-04-30 05:30 23.38264 113.28786 58 ft 15 kts 193°
2026-04-30 05:30 23.38158 113.28758 58 ft 15 kts 194°
2026-04-30 05:30 23.38057 113.28730 58 ft 14 kts 194°
2026-04-30 05:30 23.37960 113.28703 58 ft 14 kts 194°
2026-04-30 05:31 23.37865 113.28677 58 ft 13 kts 194°
2026-04-30 05:31 23.37779 113.28655 58 ft 11 kts 191°
2026-04-30 05:31 23.37708 113.28636 58 ft 9 kts 194°
2026-04-30 05:31 23.37667 113.28621 58 ft 4 kts 218°
2026-04-30 05:32 23.37655 113.28594 58 ft 4 kts 261°
2026-04-30 05:32 23.37660 113.28546 58 ft 8 kts 282°
2026-04-30 05:32 23.37672 113.28490 58 ft 6 kts 283°
2026-04-30 05:32 23.37681 113.28447 58 ft 5 kts 283°
2026-04-30 05:33 23.37692 113.28404 58 ft 5 kts 292°
2026-04-30 05:33 23.37705 113.28374 58 ft 3 kts 291°
2026-04-30 05:33 23.37713 113.28362 58 ft 1 kts 319°
2026-04-30 05:33 23.37723 113.28359 58 ft 1 kts 356°
2026-04-30 05:34 23.37736 113.28361 58 ft 2 kts 13°
2026-04-30 05:34 23.37738 113.28362 58 ft 0 kts 13°
2026-04-30 05:34 23.37826 113.28386 58 ft 41 kts 13°
2026-04-30 05:34 23.38331 113.28519 58 ft 106 kts 13°
2026-04-30 05:35 23.39255 113.28767 59 ft 165 kts 14°
2026-04-30 05:35 23.40512 113.29096 213 ft 202 kts 11°
2026-04-30 05:35 23.41862 113.29537 989 ft 204 kts 21°
2026-04-30 05:35 23.43199 113.29976 1633 ft 204 kts
2026-04-30 05:36 23.44666 113.29805 1762 ft 226 kts 344°
2026-04-30 05:36 23.46235 113.29202 1854 ft 251 kts 340°
2026-04-30 05:36 23.47901 113.28496 2374 ft 257 kts 340°
2026-04-30 05:36 23.49535 113.27800 3125 ft 254 kts 340°
2026-04-30 05:37 23.51179 113.27103 3723 ft 257 kts 340°
2026-04-30 05:37 23.52862 113.26408 4323 ft 259 kts 342°
2026-04-30 05:37 23.54581 113.25841 4888 ft 262 kts 343°
2026-04-30 05:37 23.56341 113.25298 5428 ft 266 kts 343°
2026-04-30 05:38 23.58131 113.24709 5982 ft 268 kts 334°
2026-04-30 05:38 23.59670 113.23597 6442 ft 270 kts 313°
2026-04-30 05:38 23.60936 113.22124 7050 ft 269 kts 310°
2026-04-30 05:38 23.62148 113.20628 7599 ft 271 kts 310°
2026-04-30 05:39 23.63342 113.19047 8119 ft 272 kts 300°
2026-04-30 05:39 23.64031 113.17127 8576 ft 274 kts 278°
2026-04-30 05:39 23.63992 113.15078 9048 ft 276 kts 257°